This demonstration page uses our WeatherBlox Daily Observations layout. Learn more.

Hourly Observations for April 12, 2019

Temp ( °F °C ) Dew Point ( °F °C ) Humidity (%) Winds ( mph kmh ) Pressure ( in mb ) Visibility ( mi km ) Precip ( " mm )
12:15 am 00:15 Partly Cloudy 52 11 45 7 77 77 ESE 7 11 30.21 1023 10 16.09344 0 0
12:35 am 00:35 Cloudy 52 11 45 7 77 77 ESE 9 15 30.21 1023 10 16.09344 0 0
12:55 am 00:55 Cloudy 52 11 45 7 77 77 ESE 8 13 30.21 1023 10 16.09344 0 0
1:15 am 01:15 Cloudy 52 11 45 7 77 77 ESE 7 11 30.21 1023 10 16.09344 0 0
1:35 am 01:35 Cloudy 50 10 45 7 82 82 SE 12 19 30.21 1023 10 16.09344 0 0
1:55 am 01:55 Cloudy 50 10 46 8 88 88 SE 7 11 30.21 1023 10 16.09344 0 0
2:15 am 02:15 Cloudy 50 10 46 8 88 88 SE 8 13 30.21 1023 10 16.09344 0 0
2:35 am 02:35 Cloudy 50 10 46 8 88 88 ESE 6 9 30.21 1023 10 16.09344 0 0
2:55 am 02:55 Cloudy 50 10 46 8 88 88 ESE 5 7 30.21 1023 10 16.09344 0 0
3:15 am 03:15 Cloudy 50 10 46 8 88 88 ESE 5 7 30.21 1023 10 16.09344 0 0
3:35 am 03:35 Cloudy 50 10 46 8 88 88 ESE 5 7 30.18 1022 10 16.09344 0 0
3:55 am 03:55 Cloudy 50 10 46 8 88 88 ESE 5 7 30.18 1022 10 16.09344 0 0
4:15 am 04:15 Cloudy 50 10 46 8 88 88 ESE 7 11 30.18 1022 10 16.09344 0 0
4:35 am 04:35 Cloudy 50 10 46 8 88 88 ESE 6 9 30.18 1022 10 16.09344 0 0
4:55 am 04:55 Cloudy 50 10 46 8 88 88 ESE 5 7 30.18 1022 10 16.09344 0 0
5:15 am 05:15 Cloudy 50 10 46 8 88 88 Calm 30.18 1022 10 16.09344 0 0
5:35 am 05:35 Cloudy 50 10 46 8 88 88 Calm 30.18 1022 10 16.09344 0 0
5:55 am 05:55 Cloudy 50 10 46 8 88 88 Calm 30.18 1022 10 16.09344 0 0
6:15 am 06:15 Cloudy 50 10 46 8 88 88 Calm 30.18 1022 10 16.09344 0 0
6:35 am 06:35 Cloudy 50 10 46 8 88 88 ENE 3 6 30.18 1022 10 16.09344 0 0
6:55 am 06:55 Cloudy 50 10 46 8 88 88 Calm 30.21 1023 10 16.09344 0 0
7:15 am 07:15 Cloudy 50 10 46 8 88 88 Calm 30.21 1023 10 16.09344 0 0
7:35 am 07:35 Cloudy 50 10 48 9 94 94 NE 3 6 30.21 1023 10 16.09344 0 0
7:55 am 07:55 Cloudy 52 11 48 9 88 88 E 5 7 30.21 1023 10 16.09344 0 0
8:15 am 08:15 Cloudy 52 11 48 9 88 88 ENE 5 7 30.21 1023 10 16.09344 0 0
8:35 am 08:35 Cloudy 52 11 50 10 94 94 E 3 6 30.21 1023 10 16.09344 0 0
8:55 am 08:55 Cloudy 52 11 50 10 94 94 SE 3 6 30.21 1023 10 16.09344 0 0
9:15 am 09:15 Cloudy 54 12 50 10 88 88 Calm 30.18 1022 10 16.09344 0 0
9:35 am 09:35 Cloudy 54 12 50 10 88 88 Calm 30.18 1022 10 16.09344 0 0
9:55 am 09:55 Cloudy 54 12 52 11 94 94 NE 5 7 30.18 1022 10 16.09344 0 0
10:15 am 10:15 Cloudy 55 13 52 11 88 88 Calm 30.18 1022 10 16.09344 0 0
10:35 am 10:35 Cloudy 55 13 52 11 88 88 NE 5 7 30.18 1022 10 16.09344 0 0
10:55 am 10:55 Cloudy 59 15 54 12 82 82 NE 3 6 30.18 1022 10 16.09344 0 0
11:15 am 11:15 Cloudy 61 16 55 13 83 83 E 5 7 30.15 1021 10 16.09344 0 0
11:35 am 11:35 Cloudy 61 16 55 13 83 83 ESE 3 6 30.15 1021 10 16.09344 0 0
11:55 am 11:55 Cloudy 63 17 55 13 77 77 Calm 30.15 1021 10 16.09344 0 0
12:15 pm 12:15 Cloudy 64 18 57 14 78 78 SE 6 9 30.12 1020 10 16.09344 0 0
12:35 pm 12:35 Cloudy 66 19 61 16 83 83 SSE 7 11 30.12 1020 4 6.437376 0 0
12:55 pm 12:55 Cloudy 63 17 61 16 94 94 SSW 6 9 30.15 1021 2.5 4.02336 0 0
1:15 pm 13:15 Cloudy 61 16 61 16 100 100 SW 5 7 30.12 1020 2 3.218688 0 0
1:35 pm 13:35 Cloudy 61 16 61 16 100 100 S 5 7 30.12 1020 1.75 2.816352 0 0
1:55 pm 13:55 Cloudy 61 16 61 16 100 100 S 10 17 30.12 1020 2.5 4.02336 0 0
2:15 pm 14:15 Cloudy 61 16 61 16 100 100 SSW 7 11 30.12 1020 2 3.218688 0 0
2:35 pm 14:35 Cloudy 61 16 61 16 100 100 S 6 9 30.09 1019 2.5 4.02336 0 0
2:55 pm 14:55 Cloudy 61 16 61 16 100 100 SSE 6 9 30.09 1019 3 4.828032 0 0
3:15 pm 15:15 Cloudy 61 16 61 16 100 100 SSE 5 7 30.09 1019 2.5 4.02336 0 0
3:35 pm 15:35 Cloudy 61 16 61 16 100 100 SSE 7 11 30.06 1018 3 4.828032 0 0
3:55 pm 15:55 Cloudy 61 16 61 16 100 100 S 12 19 30.06 1018 3 4.828032 0 0
4:15 pm 16:15 Cloudy 61 16 61 16 100 100 S 9 15 30.06 1018 1.75 2.816352 0 0
4:35 pm 16:35 Cloudy 61 16 61 16 100 100 S 10 17 30.06 1018 2.5 4.02336 0 0
4:55 pm 16:55 Cloudy 61 16 61 16 100 100 S 8 13 30.06 1018 2 3.218688 0 0
5:15 pm 17:15 Cloudy 61 16 61 16 100 100 SSE 14 22 30.06 1018 2.5 4.02336 0 0
5:35 pm 17:35 Cloudy 61 16 61 16 100 100 S 13 20 30.06 1018 3 4.828032 0 0
5:55 pm 17:55 Cloudy 61 16 61 16 100 100 S 10 17 30.06 1018 3 4.828032 0 0
6:15 pm 18:15 Cloudy 61 16 61 16 100 100 S 9 15 30.06 1018 7 11.265408 0 0
6:35 pm 18:35 Cloudy 61 16 61 16 100 100 SSW 5 7 30.06 1018 4 6.437376 0 0
6:55 pm 18:55 Cloudy with Thunderstorms 61 16 61 16 100 100 Calm 30.06 1018 4 6.437376 0 0
7:15 pm 19:15 Cloudy 61 16 61 16 100 100 WSW 3 6 30.09 1019 3 4.828032 0 0
7:35 pm 19:35 Cloudy 59 15 59 15 100 100 Calm 30.09 1019 10 16.09344 0 0
7:55 pm 19:55 Cloudy 59 15 59 15 100 100 ESE 6 9 30.09 1019 10 16.09344 0 0
8:15 pm 20:15 Cloudy 59 15 59 15 100 100 SE 3 6 30.06 1018 7 11.265408 0 0
8:35 pm 20:35 Cloudy 61 16 61 16 100 100 SE 3 6 30.06 1018 7 11.265408 0 0
8:55 pm 20:55 Cloudy 61 16 61 16 100 100 SSE 3 6 30.09 1019 3 4.828032 0 0
9:15 pm 21:15 Cloudy 61 16 61 16 100 100 E 6 9 30.06 1018 4 6.437376 0 0
9:35 pm 21:35 Cloudy 61 16 61 16 100 100 SE 5 7 30.09 1019 5 8.04672 0 0
9:55 pm 21:55 Cloudy 61 16 61 16 100 100 SE 7 11 30.09 1019 7 11.265408 0 0
10:15 pm 22:15 Cloudy 61 16 61 16 100 100 SE 6 9 30.09 1019 10 16.09344 0 0
10:35 pm 22:35 Cloudy 61 16 61 16 100 100 SE 3 6 30.06 1018 7 11.265408 0 0
10:55 pm 22:55 Cloudy 61 16 61 16 100 100 SE 5 7 30.06 1018 10 16.09344 0 0
11:15 pm 23:15 Cloudy 61 16 61 16 100 100 S 9 15 30.06 1018 10 16.09344 0 0
11:35 pm 23:35 Cloudy 59 15 59 15 100 100 S 5 7 30.06 1018 10 16.09344 0 0
11:55 pm 23:55 Cloudy 59 15 59 15 100 100 S 6 9 30.06 1018 10 16.09344 0 0

Powered by AerisWeather